Location: Ecklingerode
(51.5036°N, 10.3122°E)
Time: 07:32:33
(UTC+00:00)

CRYOSAT 2 - Pass Details

Date: 29 October 2020
Orbit: 715 x 724 km, 92.0° (Epoch: 01 December)

Event Time Altitude Azimuth Distance (km) Brightness Sun altitude
Rises 17:41:49 0° 7° (N) 3,136 7.6 -16.8°
Reaches altitude 10° 17:44:10 10° 13° (NNE) 2,211 6.8 -17.2°
Maximum altitude 17:48:57 54° 90° (E) 875 4.4 -18.0°
Drops below altitude 10° 17:53:41 10° 168° (SSE) 2,193 6.7 -18.7°
Sets 17:56:01 0° 173° (S) 3,108 7.6 -19.1°
